Weather past 2 weeks in Jamestown, Saint Helena

Now
70 °F

Overcast.


Feels Like: 71 °F
Forecast: 74 / 77 °F
Wind: 15 mph from Southeast

Location: Saint Helena Island

Current Time: Apr 18, 2015 at 12:53:35 PM

Latest Report: Apr 18, 2015 at 12:00 PM


Visibility: 19 mi

Pressure: 30.07 "Hg

Humidity: 81%

Dew point: 64 °F

Location of JamestownLocation

Historic Weather in Jamestown — Graph

°F

Jamestown temperature yesterday

Maximum temperature yesterday: 74 °F (at 12:00 PM)
Minimum temperature yesterday: 67 °F (at 5:00 AM)
Average temperature yesterday: 69 °F

Past Weeks' High & Low Weather Summary

 TemperatureHumidityPressure
High76 °F (Apr 4, 2:00 PM)99% (Apr 5, 9:00 AM)30.10 "Hg (Apr 5, 9:00 AM)
Low64 °F (Apr 10, 11:00 PM)58% (Apr 9, 12:00 PM)29.90 "Hg (Apr 4, 3:00 PM)
Average69 °F84%30.01 "Hg
* Reported Apr 3 11:00 AM — Apr 18 11:00 AM, Jamestown, Weather by CustomWeather, © 2015

Note: Actual official high and low records may vary slightly from our data, if they occured in-between our weather recording intervals... More about our weather records

Advertising

Jamestown weather history for previous 24 hours

 ConditionsComfort  
Time TempWeatherWind HumidityBarometerVisibility
11:00 AM
Sat, Apr 18
71 °FPartly sunny.13 mph77%30.09 "Hg25 mi
10:00 AM71 °FMild.13 mph69%30.10 "HgN/A
9:00 AM69 °FMild.12 mph83%30.09 "HgN/A
8:00 AM68 °FMild.8 mph82%30.08 "HgN/A
7:00 AM65 °FMild.9 mph90%30.07 "HgN/A
5:00 AM66 °FMild.9 mph89%30.04 "HgN/A
4:00 AM67 °FMild.15 mph86%30.03 "HgN/A
2:00 AM67 °FMild.7 mph78%30.05 "HgN/A
1:00 AM67 °FMild.14 mph90%30.06 "HgN/A
11:00 PM
Fri, Apr 17
67 °FMild.10 mph90%30.08 "HgN/A
10:00 PM68 °FMild.12 mph87%30.07 "HgN/A
9:00 PM68 °FMild.15 mph86%30.06 "HgN/A
8:00 PM68 °FMild.13 mph86%30.04 "HgN/A
7:00 PM68 °FMild.13 mph85%30.02 "HgN/A
6:00 PM69 °FMild.15 mph87%30.01 "HgN/A
5:00 PM70 °FMild.16 mph80%30.01 "HgN/A
4:00 PM70 °FMild.15 mph77%30.00 "HgN/A
3:00 PM71 °FPartly sunny.16 mph77%30.00 "Hg12 mi
2:00 PM72 °FScattered clouds.15 mph69%30.02 "Hg9 mi
1:00 PM74 °FScattered clouds.14 mph67%30.04 "Hg9 mi
12:00 PM74 °FPassing clouds.16 mph64%30.06 "Hg12 mi
Weather by CustomWeather, © 2015

See weather overviewHow to use our weather pages